Wind_Speed
27 27 24 20 17 13 13 15 21 17 16 13 9 7 6 6 6 6 7 11 11 12 13 14 15 15 15 15 14 16 16 17 10 18 20 18 19 15 15 14 16 17 19
27 26 24 24 23 20 18 16 18 18 16 13 12 11 8 6 6 7 8 9 10 11 11 12 15 14 15 15 17 15 16 13 14 13 18 20 17 22 21 19 20 17 16
26 25 23 21 23 23 22 22 20 19 17 17 16 12 11 8 7 8 8 7 8 9 9 10 11 12 14 12 14 16 16 15 16 14 15 16 18 24 22 19 23 22 21
25 21 20 23 22 21 23 24 22 20 19 16 16 15 12 11 9 7 7 8 9 9 6 11 10 13 17 17 14 14 17 17 18 18 18 19 20 24 20 21 20 19 22
24 23 21 21 19 19 17 20 16 16 13 16 16 15 13 9 7 10 9 10 10 10 9 8 13 10 13 15 15 15 15 16 17 16 16 17 17 21 19 20 18 20 19
24 20 20 17 14 12 15 11 23 13 11 16 15 15 14 9 11 12 11 11 10 10 8 7 15 17 11 12 16 16 12 12 13 15 14 14 16 16 17 19 18 16 10
19 18 20 19 16 18 20 16 21 19 12 13 13 10 9 12 15 13 12 11 10 9 8 8 8 11 16 16 12 15 17 14 11 15 12 13 14 15 15 17 19 18 17
18 18 18 20 18 16 16 18 16 16 14 13 12 9 12 17 16 13 12 9 9 6 5 5 5 7 14 16 16 13 13 15 13 17 16 20 19 15 11 13 19 20 20
16 18 20 21 20 18 18 17 14 16 14 13 12 11 15 17 15 12 8 7 5 3 2 2 2 1 9 16 18 17 16 13 15 21 18 20 22 24 15 11 9 14 14
17 20 21 21 21 19 18 19 17 16 15 14 14 11 13 14 11 6 2 7 5 6 11 10 7 3 10 18 20 18 18 19 18 26 15 19 21 16 15 17 8 11 13
17 19 22 21 21 22 20 20 19 17 17 16 15 12 11 11 10 7 2 6 6 8 11 11 2 11 18 21 19 20 20 20 22 21 22 25 14 19 15 8 7 15 17
23 21 23 22 19 22 22 20 17 20 18 17 15 13 10 9 8 6 4 0 1 3 5 9 12 18 24 23 24 28 27 24 24 24 24 17 21 18 12 16 23 24 27
23 23 23 25 24 22 20 19 18 18 16 15 14 13 15 9 7 7 5 4 4 6 5 11 14 22 23 25 19 21 22 23 20 20 22 20 18 18 20 21 20 19 21
23 23 27 23 24 22 19 17 16 15 15 15 14 14 17 17 18 13 10 9 7 7 9 16 21 20 22 15 20 23 13 11 12 16 20 18 22 25 23 22 22 21 17
24 23 23 24 23 24 18 15 16 16 16 15 16 15 14 15 9 15 10 6 3 8 16 20 20 20 20 22 21 20 14 17 18 17 19 22 22 19 20 22 21 21 20
22 23 22 23 20 19 19 9 12 12 9 8 7 9 14 13 8 3 2 6 9 14 18 20 19 20 20 16 17 15 18 18 18 21 20 20 20 21 23 23 24 19 17
21 21 21 18 16 16 16 12 10 7 6 6 6 7 7 5 2 4 6 10 12 17 21 25 19 19 15 19 16 17 18 19 21 21 19 22 23 22 21 19 20 20 17
19 25 20 20 16 16 16 14 13 11 8 7 7 7 8 11 10 9 10 13 18 18 17 18 16 12 14 15 18 18 18 19 20 20 22 21 20 20 21 20 19 18 19
26 24 21 17 18 17 16 14 15 14 14 16 14 13 10 9 10 13 15 18 18 16 16 20 20 17 15 17 18 17 17 18 20 19 18 19 21 22 22 22 22 20 19
23 28 18 18 14 12 10 10 10 13 8 4 11 16 16 14 14 18 21 21 16 15 18 12 8 10 16 17 15 15 17 18 17 17 16 19 21 21 22 22 22 22 21
14 13 22 19 13 13 10 14 12 8 12 16 14 7 20 18 15 6 9 8 12 13 13 5 8 12 14 15 13 15 16 16 17 13 16 19 21 21 21 22 22 23 23
17 16 14 14 15 14 13 9 8 11 11 11 10 19 16 9 10 5 9 5 9 9 4 6 9 11 12 10 13 15 15 16 12 14 18 20 19 20 20 21 21 23 24
15 15 14 14 12 11 7 10 11 10 11 9 7 16 16 9 5 6 8 10 13 11 6 8 9 10 11 10 12 13 13 8 14 21 22 18 20 21 20 21 21 22 22
15 13 13 11 11 11 12 11 10 5 5 7 7 7 13 10 5 4 7 3 10 6 6 9 8 10 9 12 12 13 9 14 22 22 19 24 21 20 21 22 22 22 24
11 10 12 13 11 9 11 12 14 10 10 8 6 4 3 0 1 3 5 7 8 6 8 8 9 9 11 12 12 10 13 19 23 23 22 22 24 20 21 21 21 22 25
11 12 13 13 12 11 12 9 10 11 9 8 4 4 3 3 4 5 9 7 7 8 7 9 8 10 10 12 10 12 18 23 26 22 21 22 17 17 20 21 23 22 21
Wind_Direction
178 178 181 188 190 183 172 153 146 139 138 138 136 122 105 88 53 39 28 50 44 37 26 17 21 11 3 11 7 13 2 9 344 332 336 338 333 17 24 8 353 336 333
178 180 179 183 186 184 177 166 156 148 144 139 134 132 107 69 66 72 60 52 51 41 33 37 27 19 16 11 10 13 11 1 335 340 338 349 23 10 3 1 352 346 347
177 181 177 182 184 186 180 172 169 160 149 143 137 120 111 106 88 87 82 74 64 61 56 44 39 31 23 30 21 17 2 356 351 339 339 2 7 14 7 1 359 354 343
174 178 180 174 184 193 182 176 175 157 142 137 133 126 117 107 102 90 87 84 81 74 73 59 51 43 38 35 25 24 19 13 8 0 353 3 12 0 3 1 350 348 342
162 179 183 190 191 195 190 173 170 135 144 145 136 121 120 122 120 109 87 85 83 77 68 58 48 31 24 27 23 19 16 20 14 1 5 2 5 356 357 349 342 344 339
167 181 179 181 161 161 148 99 107 153 157 140 131 123 120 100 127 118 117 112 100 86 72 66 48 41 39 16 5 6 1 12 18 10 1 351 350 350 345 341 336 346 344
170 156 152 158 149 139 136 138 153 155 149 124 124 123 116 129 131 118 122 108 98 91 81 68 59 32 33 31 23 7 359 350 359 350 340 326 323 330 342 335 328 317 307
147 147 162 158 147 143 143 140 142 144 139 136 126 129 130 129 129 122 109 105 100 100 96 79 52 11 15 11 10 357 344 336 338 338 313 313 306 302 316 335 335 335 335
152 163 165 162 154 151 143 144 148 140 141 136 143 138 131 134 140 135 122 135 132 189 178 156 172 321 346 354 351 341 331 326 312 320 304 293 296 285 279 280 314 333 331
166 161 163 161 155 161 156 153 160 150 150 144 139 128 136 145 150 163 172 357 213 238 233 265 258 271 337 339 333 323 314 322 314 329 323 323 323 300 275 253 265 314 323
161 159 161 162 158 164 165 157 155 156 148 143 136 146 150 159 168 181 168 35 34 11 356 8 100 345 326 319 316 305 299 307 309 316 313 305 342 329 328 276 269 303 294
155 153 150 154 156 164 154 154 158 147 145 144 150 154 162 179 181 175 182 222 40 358 325 329 328 310 310 314 308 302 300 298 294 300 295 308 318 303 299 304 301 297 287
154 156 157 160 156 157 154 154 147 150 153 158 171 183 168 190 199 199 206 223 251 277 309 299 305 311 316 313 311 314 301 291 284 278 285 323 332 335 328 323 306 300 300
165 154 146 144 147 155 157 162 161 171 170 174 187 206 181 184 196 206 209 228 256 272 289 298 312 314 308 311 325 329 309 307 281 297 326 330 329 325 314 306 302 300 302
146 144 146 151 158 165 168 183 174 188 186 187 198 213 190 178 129 177 191 181 263 286 297 308 316 308 306 307 313 321 349 347 342 343 334 325 317 320 323 320 319 314 303
147 147 149 157 170 169 152 134 160 171 175 178 171 129 107 122 131 149 250 275 273 287 300 302 302 295 301 320 324 349 349 347 343 338 331 329 331 328 315 309 306 307 319
152 156 167 171 173 157 154 156 134 146 175 171 169 127 123 125 172 238 265 270 277 289 291 290 279 295 312 332 352 350 348 343 340 332 335 330 316 311 313 318 321 319 321
171 167 154 157 170 157 171 169 173 170 188 210 220 230 229 234 234 246 266 274 283 286 290 278 264 302 338 356 353 347 341 338 332 332 325 322 332 337 332 330 332 338 334
144 151 166 172 170 175 168 184 157 171 189 192 192 206 209 223 238 250 256 260 267 288 304 328 330 351 353 350 341 337 337 333 331 333 335 344 346 342 335 331 325 313 310
167 171 181 156 145 149 163 170 187 193 184 209 220 215 201 213 230 243 251 255 260 261 267 290 314 343 346 335 334 340 337 330 332 335 345 349 339 332 323 323 324 324 319
183 181 154 142 161 195 184 206 199 174 205 215 218 176 180 199 226 277 40 212 259 263 271 316 356 345 341 336 339 339 330 329 327 349 351 337 326 324 324 322 316 314 312
157 151 149 175 188 193 202 197 204 217 229 232 178 163 178 219 267 255 288 319 7 0 291 1 354 342 334 337 339 326 324 320 336 333 325 321 315 314 314 312 308 305 305
170 178 188 216 180 176 184 216 207 222 235 244 183 170 195 215 250 92 65 21 338 280 340 340 336 328 322 319 323 321 319 318 322 326 322 314 310 310 308 306 311 309 309
188 183 191 188 182 177 206 222 238 216 300 304 312 193 200 225 121 16 343 337 283 292 325 324 320 318 308 317 315 315 298 320 326 324 317 316 315 307 306 303 298 297 304
193 186 199 185 173 205 220 213 223 222 194 216 237 301 89 289 355 350 325 304 301 323 307 305 310 303 306 310 304 277 295 320 330 327 322 318 313 308 299 295 297 301 300
208 194 204 202 189 195 238 205 237 241 220 217 179 191 131 58 328 329 314 301 292 290 292 298 296 304 311 301 290 312 325 328 328 325 321 319 317 305 294 290 293 301 310
Height
765 769 773 778 782 785 790 792 794 797 799 800 803 807 809 811 811 812 814 814 815 815 815 816 815 814 813 810 807 806 804 803 803 800 797 793 791 789 787 786 784 782 781
761 767 770 774 776 779 783 787 790 792 795 798 802 805 807 810 812 812 814 815 815 816 817 816 816 815 814 812 810 807 805 803 802 799 796 793 791 789 788 786 784 781 779
760 764 768 773 777 779 781 784 788 793 797 798 800 803 806 809 812 813 813 814 816 817 817 817 817 816 814 812 811 810 807 804 801 799 796 794 792 790 788 786 784 782 779
760 767 769 768 776 778 781 785 789 793 798 800 800 802 806 808 812 814 814 815 816 817 818 818 819 818 817 816 815 813 811 807 804 801 799 797 795 793 792 789 786 784 781
760 764 766 772 773 778 784 786 793 796 801 802 802 801 804 807 811 814 816 818 819 820 821 820 819 819 818 818 817 815 813 811 809 806 803 801 799 796 794 792 789 786 782
758 764 767 771 774 779 783 790 770 797 804 803 804 802 804 806 812 813 815 816 817 819 821 821 820 819 818 818 817 815 814 811 810 808 806 804 802 800 797 794 790 786 782
759 763 767 771 774 780 785 790 793 799 807 806 805 804 806 810 813 815 818 817 818 821 821 822 822 820 819 817 816 816 815 813 811 809 807 804 802 800 796 794 792 790 785
759 763 768 771 776 781 785 791 797 801 805 807 806 807 809 811 814 818 819 820 820 823 823 823 822 821 821 818 815 815 814 813 811 809 806 803 801 797 795 793 792 790 785
761 765 769 773 777 782 785 790 798 802 805 805 807 809 809 812 815 818 820 821 822 823 823 822 821 821 821 819 816 815 813 810 808 806 803 798 795 794 792 790 789 790 786
762 765 770 774 778 784 787 791 798 801 804 806 808 808 810 814 816 819 820 820 821 821 820 819 821 822 819 817 815 813 811 808 806 801 797 794 791 787 788 787 786 786 784
762 767 772 776 779 783 790 793 797 801 803 805 807 809 811 813 816 818 818 819 820 821 820 821 821 819 818 815 813 810 808 806 803 800 795 791 790 787 785 784 783 782 780
760 767 771 776 782 786 789 793 797 799 802 805 808 811 814 815 817 818 819 820 820 821 822 821 821 819 815 813 810 807 805 804 800 798 793 789 786 783 782 781 779 776 775
761 767 772 777 779 786 792 794 798 799 802 805 808 810 813 815 817 818 819 820 820 820 822 820 817 814 810 808 804 801 799 798 795 794 791 786 784 781 778 775 772 771 770
760 764 768 778 782 788 792 796 797 800 803 804 806 807 809 811 814 815 816 818 819 820 819 816 814 810 807 804 800 796 793 792 791 790 786 784 781 778 774 772 770 767 764
759 767 772 776 782 785 791 795 796 798 800 802 804 804 805 808 811 813 815 818 817 817 814 812 810 807 804 801 798 795 794 792 790 787 785 781 777 774 771 770 767 764 762
763 766 772 777 783 785 786 793 794 797 799 801 803 803 804 807 811 812 813 814 814 814 813 810 808 805 802 799 795 794 792 790 788 785 782 778 774 771 769 767 764 760 758
766 770 774 778 782 787 786 791 794 797 799 802 804 805 806 807 809 811 812 812 811 811 809 805 804 802 799 796 794 792 790 788 785 782 779 776 772 770 767 764 761 757 754
765 769 771 775 782 784 786 789 793 796 799 801 803 804 805 806 807 809 809 808 807 807 805 803 799 798 795 794 792 790 788 786 784 781 778 775 772 769 765 762 759 756 753
763 769 773 775 779 781 784 787 790 793 796 798 800 801 801 802 804 805 805 805 805 806 803 799 799 796 795 793 791 789 787 786 784 781 778 775 772 769 765 761 757 754 751
763 765 768 773 777 781 784 786 789 790 792 794 795 794 797 800 800 799 798 800 802 800 798 797 796 795 793 792 790 789 787 786 783 780 778 775 772 769 765 761 758 754 750
766 767 767 770 775 781 784 784 784 786 789 789 788 788 791 793 793 793 794 797 798 796 795 794 793 792 792 791 789 788 787 784 782 779 776 775 772 769 765 761 757 752 748
766 767 769 771 775 778 780 782 784 784 783 783 783 786 788 791 791 790 791 793 795 794 793 792 790 790 790 789 788 787 785 783 780 777 775 772 769 766 762 758 754 750 745
765 766 768 769 772 775 779 780 780 781 780 780 781 783 786 787 788 790 791 790 790 791 790 790 788 789 788 787 787 785 782 780 778 776 772 768 765 762 759 755 751 747 742
760 762 764 767 771 775 777 778 777 778 779 779 780 781 783 784 786 787 787 787 787 787 788 788 787 787 786 785 784 783 779 778 775 771 768 764 760 758 755 752 748 743 739
757 761 763 765 770 772 773 774 774 774 776 777 777 779 781 783 784 785 785 785 785 785 784 785 784 784 783 782 780 778 777 775 771 767 763 760 756 753 751 748 744 740 735
756 759 761 763 766 770 771 772 772 772 773 774 775 777 778 781 782 783 783 782 781 781 781 781 781 781 780 778 776 774 772 770 766 762 759 755 751 749 747 743 739 735 731